• In Belarus
  • List of Countries
  • For 7 days
  • Water Temperature
  • Satellite Maps
  • Weather Map
  • Weather Widgets
  • user-avatar
    Login

    Hourly Weather Cygany

    Today, 20 July, Friday

    Time Temperature Precipitation Wind Pressure Humidity
    00:00 +17°C° 0 mm 2 mps 737 mmHg 98%
    01:00 +17°C° 0 mm 2 mps 737 mmHg 98%
    02:00 +17°C° 0 mm 2 mps 737 mmHg 98%
    03:00 +17°C° 0 mm 2 mps 737 mmHg 98%
    04:00 +17°C° 0 mm 2 mps 737 mmHg 98%
    05:00 +17°C° 0 mm 2 mps 737 mmHg 98%
    06:00 +18°C° 0.1 mm 2 mps 737 mmHg 97%
    07:00 +19°C° 0.1 mm 2 mps 737 mmHg 95%
    08:00 +20°C° 0 mm 3 mps 737 mmHg 95%
    09:00 +20°C° 0.3 mm 3 mps 737 mmHg 93%
    10:00 +21°C° 0.3 mm 3 mps 736 mmHg 91%
    11:00 +22°C° 0.3 mm 3 mps 736 mmHg 89%
    12:00 +24°C° 0.5 mm 3 mps 736 mmHg 86%
    13:00 +24°C° 0.5 mm 3 mps 736 mmHg 84%
    14:00 +25°C° 0 mm 2 mps 737 mmHg 80%
    15:00 +25°C° 0.5 mm 2 mps 737 mmHg 81%
    16:00 +25°C° 0.5 mm 2 mps 737 mmHg 82%
    17:00 +25°C° 0.5 mm 2 mps 736 mmHg 83%
    18:00 +24°C° 0.6 mm 2 mps 736 mmHg 87%
    19:00 +23°C° 0.6 mm 1 mps 736 mmHg 91%
    20:00 +22°C° 0.6 mm 1 mps 736 mmHg 95%
    21:00 +21°C° 0.3 mm 1 mps 736 mmHg 95%
    22:00 +20°C° 0.3 mm 1 mps 736 mmHg 96%
    23:00 +20°C° 0.3 mm 1 mps 736 mmHg 96%

    Tomorrow, 21 July, Saturday

    Time Temperature Precipitation Wind Pressure Humidity
    00:00 +18°C° 0 mm 0 mps 736 mmHg 97%
    01:00 +17°C° 0 mm 0 mps 736 mmHg 97%
    02:00 +17°C° 0 mm 0 mps 737 mmHg 97%
    03:00 +17°C° 0 mm 0 mps 737 mmHg 97%
    04:00 +17°C° 0 mm 0 mps 737 mmHg 97%
    05:00 +17°C° 0 mm 0 mps 737 mmHg 97%
    06:00 +19°C° 0 mm 0 mps 737 mmHg 94%
    07:00 +20°C° 0 mm 0 mps 737 mmHg 90%
    08:00 +22°C° 0 mm 0 mps 738 mmHg 86%
    09:00 +23°C° 0.3 mm 0 mps 738 mmHg 81%
    10:00 +25°C° 0.3 mm 0 mps 738 mmHg 76%
    11:00 +26°C° 0.3 mm 0 mps 738 mmHg 71%
    12:00 +28°C° 0.6 mm 1 mps 738 mmHg 69%
    13:00 +28°C° 0.6 mm 1 mps 738 mmHg 68%
    14:00 +29°C° 0.6 mm 1 mps 738 mmHg 67%
    15:00 +28°C° 1.8 mm 1 mps 738 mmHg 74%
    16:00 +27°C° 1.8 mm 1 mps 738 mmHg 80%
    17:00 +26°C° 1.8 mm 1 mps 738 mmHg 87%
    18:00 +25°C° 0.8 mm 1 mps 738 mmHg 89%
    19:00 +23°C° 0.8 mm 1 mps 738 mmHg 91%
    20:00 +22°C° 0.8 mm 1 mps 738 mmHg 93%
    21:00 +22°C° 0.3 mm 1 mps 738 mmHg 94%
    22:00 +21°C° 0.3 mm 1 mps 738 mmHg 95%
    23:00 +20°C° 0.3 mm 1 mps 738 mmHg 95%

    Day after tomorrow, 22 July, Sunday

    Time Temperature Precipitation Wind Pressure Humidity
    00:00 +20°C° 0.2 mm 1 mps 738 mmHg 96%
    01:00 +20°C° 0.2 mm 1 mps 738 mmHg 96%
    02:00 +19°C° 0.2 mm 1 mps 738 mmHg 96%
    03:00 +19°C° 0.1 mm 1 mps 738 mmHg 96%
    04:00 +20°C° 0.1 mm 1 mps 738 mmHg 96%
    05:00 +20°C° 0.1 mm 1 mps 738 mmHg 96%
    06:00 +21°C° 0.1 mm 1 mps 738 mmHg 94%
    07:00 +22°C° 0.1 mm 1 mps 738 mmHg 92%
    08:00 +23°C° 0.1 mm 2 mps 738 mmHg 89%
    09:00 +24°C° 1.3 mm 2 mps 738 mmHg 88%
    10:00 +24°C° 1.3 mm 2 mps 739 mmHg 87%
    11:00 +25°C° 1.3 mm 3 mps 739 mmHg 86%
    12:00 +25°C° 0.7 mm 3 mps 739 mmHg 85%
    13:00 +25°C° 0.7 mm 3 mps 739 mmHg 84%
    14:00 +24°C° 0.7 mm 3 mps 739 mmHg 82%
    15:00 +24°C° 0.3 mm 3 mps 739 mmHg 83%
    16:00 +22°C° 0.3 mm 3 mps 739 mmHg 84%
    17:00 +22°C° 0.3 mm 3 mps 739 mmHg 85%
    18:00 +21°C° 0 mm 3 mps 739 mmHg 86%
    19:00 +21°C° 0 mm 2 mps 739 mmHg 88%
    20:00 +20°C° 0 mm 2 mps 739 mmHg 90%
    21:00 +20°C° 0 mm 2 mps 739 mmHg 91%
    22:00 +20°C° 0 mm 2 mps 739 mmHg 93%
    23:00 +19°C° 0 mm 2 mps 739 mmHg 94%

    23 July, Monday

    Time Temperature Precipitation Wind Pressure Humidity
    00:00 +19°C° 0 mm 2 mps 739 mmHg 95%
    01:00 +19°C° 0 mm 2 mps 739 mmHg 96%
    02:00 +19°C° 0 mm 2 mps 739 mmHg 96%
    03:00 +19°C° 0 mm 2 mps 739 mmHg 96%
    04:00 +19°C° 0 mm 2 mps 739 mmHg 96%
    05:00 +18°C° 0 mm 2 mps 739 mmHg 97%
    06:00 +19°C° 0 mm 2 mps 739 mmHg 96%
    07:00 +19°C° 0 mm 2 mps 740 mmHg 95%
    08:00 +19°C° 0 mm 3 mps 740 mmHg 93%
    09:00 +20°C° 0 mm 3 mps 740 mmHg 91%
    10:00 +20°C° 0 mm 3 mps 740 mmHg 89%
    11:00 +21°C° 0 mm 3 mps 740 mmHg 87%
    12:00 +22°C° 0.1 mm 3 mps 740 mmHg 83%
    13:00 +24°C° 0.1 mm 3 mps 740 mmHg 79%
    14:00 +24°C° 0.1 mm 2 mps 739 mmHg 75%
    15:00 +24°C° 0.1 mm 3 mps 739 mmHg 76%
    16:00 +24°C° 0.1 mm 3 mps 739 mmHg 77%
    17:00 +24°C° 0.1 mm 3 mps 739 mmHg 78%
    18:00 +23°C° 0 mm 2 mps 739 mmHg 83%
    19:00 +21°C° 0 mm 2 mps 740 mmHg 88%
    20:00 +20°C° 0 mm 2 mps 740 mmHg 92%
    21:00 +20°C° 0.1 mm 2 mps 740 mmHg 94%
    22:00 +19°C° 0.1 mm 2 mps 740 mmHg 95%
    23:00 +19°C° 0.1 mm 2 mps 740 mmHg 96%

    24 July, Tuesday

    Time Temperature Precipitation Wind Pressure Humidity
    00:00 +18°C° 0 mm 2 mps 740 mmHg 97%
    01:00 +18°C° 0 mm 2 mps 740 mmHg 98%
    02:00 +17°C° 0 mm 2 mps 740 mmHg 99%
    03:00 +17°C° 0 mm 2 mps 740 mmHg 98%
    04:00 +17°C° 0 mm 2 mps 740 mmHg 98%
    05:00 +17°C° 0 mm 2 mps 740 mmHg 98%
    06:00 +18°C° 0 mm 2 mps 740 mmHg 97%
    07:00 +18°C° 0 mm 2 mps 740 mmHg 96%
    08:00 +19°C° 0 mm 3 mps 741 mmHg 94%
    09:00 +20°C° 0 mm 2 mps 741 mmHg 91%
    10:00 +21°C° 0 mm 2 mps 741 mmHg 88%
    11:00 +21°C° 0 mm 2 mps 741 mmHg 85%
    12:00 +23°C° 0.8 mm 2 mps 741 mmHg 84%
    13:00 +24°C° 0.8 mm 2 mps 741 mmHg 83%
    14:00 +25°C° 0.8 mm 3 mps 741 mmHg 82%
    15:00 +25°C° 0.7 mm 3 mps 741 mmHg 83%
    16:00 +24°C° 0.7 mm 3 mps 741 mmHg 84%
    17:00 +24°C° 0.7 mm 3 mps 741 mmHg 85%
    18:00 +23°C° 0.1 mm 2 mps 741 mmHg 88%
    19:00 +21°C° 0.1 mm 2 mps 741 mmHg 91%
    20:00 +20°C° 0.1 mm 2 mps 741 mmHg 94%
    21:00 +20°C° 0 mm 2 mps 741 mmHg 95%
    22:00 +19°C° 0 mm 2 mps 741 mmHg 96%
    23:00 +19°C° 0 mm 2 mps 741 mmHg 97%

    25 July, Wednesday

    Time Temperature Precipitation Wind Pressure Humidity
    00:00 +19°C° 0 mm 2 mps 741 mmHg 97%
    01:00 +19°C° 0 mm 2 mps 741 mmHg 98%
    02:00 +19°C° 0 mm 2 mps 741 mmHg 98%
    03:00 +19°C° 0.1 mm 2 mps 741 mmHg 98%
    04:00 +19°C° 0.1 mm 2 mps 741 mmHg 98%
    05:00 +19°C° 0.1 mm 2 mps 742 mmHg 98%
    06:00 +19°C° 0.1 mm 2 mps 742 mmHg 97%
    07:00 +19°C° 0.1 mm 2 mps 742 mmHg 97%
    08:00 +20°C° 0.1 mm 2 mps 742 mmHg 96%
    09:00 +20°C° 0.1 mm 2 mps 742 mmHg 94%
    10:00 +21°C° 0.1 mm 2 mps 742 mmHg 92%
    11:00 +21°C° 0.1 mm 2 mps 742 mmHg 91%
    12:00 +22°C° 0.6 mm 3 mps 742 mmHg 90%
    13:00 +22°C° 0.6 mm 3 mps 742 mmHg 89%
    14:00 +24°C° 0.6 mm 3 mps 742 mmHg 88%
    15:00 +22°C° 1 mm 3 mps 742 mmHg 90%
    16:00 +21°C° 1 mm 2 mps 742 mmHg 93%
    17:00 +20°C° 1 mm 2 mps 741 mmHg 95%
    18:00 +20°C° 0.3 mm 2 mps 741 mmHg 96%
    19:00 +19°C° 0.3 mm 2 mps 741 mmHg 97%
    20:00 +20°C° 0.3 mm 1 mps 741 mmHg 98%
    21:00 +20°C° 0.3 mm 1 mps 741 mmHg 98%
    22:00 +19°C° 0.3 mm 1 mps 741 mmHg 98%
    23:00 +19°C° 0.3 mm 1 mps 741 mmHg 98%
    Show more